Change the Weather History Date:

Saturday, November 19, 2011

  Actual Average Record
Temperature  
Mean Temperature 42 °F -  
Max Temperature 51 °F 44 °F 55 °F (2003)
Min Temperature 32 °F 36 °F 26 °F (2012)
Degree Days  
Heating Degree Days 24    
Moisture  
Dew Point 38 °F    
Average Humidity 95    
Maximum Humidity 100    
Minimum Humidity 77    
Precipitation  
Precipitation 0.00 in - - ()
Sea Level Pressure  
Sea Level Pressure 30.09 in    
Wind  
Wind Speed 2 mph ()    
Max Wind Speed 6 mph    
Max Gust Speed -    
Visibility 2.5 miles    
Events Fog    
Averages and records for this station are not official NWS values.
T = Trace of Precipitation, MM = Missing Value Source: Averaged Metar Reports

Daily Weather History Graph

Daily Weather History Graph

Search for Another Location

Airport or City:

Trip Planner

Search our weather history database for the weather conditions in past years. The results will help you decide how hot, cold, wet, or windy it might be!

Date:

Astronomy

Nov. 19, 2011 Rise Set
Actual Time 8:08 AM CET 4:46 PM CET
Civil Twilight 7:30 AM CET 5:24 PM CET
Nautical Twilight 6:48 AM CET 6:05 PM CET
Astronomical Twilight 6:08 AM CET 6:45 PM CET
Moon 12:22 AM CET (11/19) 1:38 PM CET (11/19)
Length of Visible Light 9h 54m
Length of Day
8h 38m
Last Quarter, 41% of the Moon is Illuminated
Nov 19
Last Quarter
Nov 25
New
Dec 2
First Quarter
Dec 10
Full
Dec 18
Last Quarter

Hourly Weather History & Observations

Time (CET) Temp. Windchill Dew Point Humidity Pressure Visibility Wind Dir Wind Speed Gust Speed Precip Events Conditions
12:25 AM 37.4 °F - 37.4 °F 100% 30.12 in 0.2 mi East 1.2 mph - N/A Fog Fog
12:55 AM 35.6 °F - 35.6 °F 100% 30.12 in 0.3 mi NE 1.2 mph - N/A Fog Fog
1:25 AM 33.8 °F - 33.8 °F 100% 30.12 in 0.2 mi ENE 2.3 mph - N/A Fog Fog
1:55 AM 32.0 °F - 32.0 °F 100% 30.12 in 0.3 mi NE 2.3 mph - N/A Fog Fog
2:25 AM 33.8 °F 30.8 °F 33.8 °F 100% 30.09 in 0.2 mi ENE 3.5 mph - N/A Fog Fog
2:55 AM 33.8 °F - 33.8 °F 100% 30.09 in 0.2 mi Variable 2.3 mph - N/A Fog Fog
3:25 AM 33.8 °F 30.8 °F 33.8 °F 100% 30.09 in 0.2 mi NE 3.5 mph - N/A Fog Fog
3:55 AM 35.6 °F 32.8 °F 35.6 °F 100% 30.09 in 0.2 mi ENE 3.5 mph - N/A Fog Fog
4:00 AM 35 °F - 35 °F 98% 30.11 in 0 mi ENE 2.2 mph - - Fog Fog
4:25 AM 35.6 °F 32.8 °F 35.6 °F 100% 30.09 in 0.9 mi East 3.5 mph - N/A   Mist
4:55 AM 35.6 °F 31.7 °F 35.6 °F 100% 30.09 in 1.5 mi ENE 4.6 mph - N/A   Mist
5:25 AM 37.4 °F 34.9 °F 35.6 °F 93% 30.09 in - East 3.5 mph - N/A   Mist
5:55 AM 37.4 °F 34.9 °F 37.4 °F 100% 30.09 in 3.1 mi East 3.5 mph - N/A   Mist
6:25 AM 35.6 °F 32.8 °F 35.6 °F 100% 30.09 in - East 3.5 mph - N/A   Mist
6:55 AM 33.8 °F 30.8 °F 33.8 °F 100% 30.09 in - East 3.5 mph - N/A   Mist
7:00 AM 35 °F - 34 °F 95% 30.10 in 2 mi East 2.2 mph - -   Mist
7:25 AM 35.6 °F - 35.6 °F 100% 30.09 in - ENE 2.3 mph - N/A   Mist
7:55 AM 35.6 °F - 35.6 °F 100% 30.09 in 1.5 mi East 2.3 mph - N/A   Mist
8:25 AM 35.6 °F 32.8 °F 35.6 °F 100% 30.09 in - ENE 3.5 mph - N/A   Mist
8:55 AM 37.4 °F - 35.6 °F 93% 30.09 in - NE 1.2 mph - N/A   Partly Cloudy
9:25 AM 37.4 °F - 37.4 °F 100% 30.09 in - NE 1.2 mph - N/A   Mist
9:55 AM 41.0 °F 39.0 °F 41.0 °F 100% 30.09 in 3.1 mi ENE 3.5 mph - N/A   Mist
10:00 AM 42 °F - 42 °F 98% 30.12 in 4 mi East 2.2 mph - -   Mist
10:25 AM 42.8 °F 41.1 °F 41.0 °F 93% 30.09 in 3.7 mi East 3.5 mph - N/A   Unknown
10:55 AM 44.6 °F 42.2 °F 42.8 °F 93% 30.09 in 5.0 mi East 4.6 mph - N/A   Unknown
11:25 AM 46.4 °F - 44.6 °F 93% 30.09 in 5.0 mi Variable 2.3 mph - N/A   Unknown
11:55 AM 50.0 °F - 44.6 °F 82% 30.09 in 5.6 mi SE 4.6 mph - N/A   Unknown
12:25 PM 50.0 °F - 44.6 °F 82% 30.09 in 5.6 mi South 3.5 mph - N/A   Unknown
12:55 PM 50.0 °F - 44.6 °F 82% 30.09 in 6.2 mi Variable 2.3 mph - N/A   Unknown
1:00 PM 50 °F - 45 °F 77% 30.09 in 6 mi 2.2 mph - -   Mist
1:25 PM 50.0 °F - 44.6 °F 82% 30.06 in 5.6 mi Variable 2.3 mph - N/A   Unknown
1:55 PM 50.0 °F - 46.4 °F 87% 30.06 in 5.6 mi Variable 2.3 mph - N/A   Unknown
2:25 PM 50.0 °F - 46.4 °F 87% 30.06 in 6.2 mi East 4.6 mph - N/A   Unknown
2:55 PM 50.0 °F - 46.4 °F 87% 30.06 in 5.6 mi Variable 2.3 mph - N/A   Unknown
3:25 PM 50.0 °F - 46.4 °F 87% 30.06 in 6.2 mi Variable 2.3 mph - N/A   Overcast
3:55 PM 48.2 °F - 44.6 °F 87% 30.06 in 5.6 mi South 5.8 mph - N/A   Partly Cloudy
4:00 PM 48 °F - 44 °F 83% 30.09 in 6 mi South 4.5 mph - -   Mist
4:25 PM 48.2 °F - 44.6 °F 87% 30.09 in 5.6 mi South 5.8 mph - N/A   Mostly Cloudy
4:55 PM 46.4 °F 45.2 °F 42.8 °F 87% 30.09 in 5.6 mi South 3.5 mph - N/A   Partly Cloudy
5:25 PM 44.6 °F - 42.8 °F 93% 30.09 in 3.7 mi East 2.3 mph - N/A   Unknown
5:55 PM 42.8 °F - 42.8 °F 100% 30.09 in 1.1 mi East 2.3 mph - N/A   Mist
6:25 PM 39.2 °F - 39.2 °F 100% 30.09 in 1.6 mi East 1.2 mph - N/A   Mist
6:55 PM 39.2 °F - 39.2 °F 100% 30.09 in 0.3 mi East 2.3 mph - N/A Fog Fog
7:00 PM 38 °F - 38 °F 100% 30.10 in 0 mi East 2.2 mph - - Fog Fog
7:25 PM 37.4 °F - 37.4 °F 100% 30.09 in 0.7 mi ENE 2.3 mph - N/A   Mist
7:55 PM 35.6 °F - 35.6 °F 100% 30.09 in - Calm Calm - N/A Fog Fog
8:25 PM 35.6 °F - 35.6 °F 100% 30.09 in 0.2 mi ENE 1.2 mph - N/A Fog Fog
8:55 PM 33.8 °F - 33.8 °F 100% 30.09 in 0.2 mi ENE 1.2 mph - N/A Fog Fog
9:25 PM 32.0 °F - 32.0 °F 100% 30.12 in 0.1 mi Calm Calm - N/A Fog Fog
9:55 PM 33.8 °F - 32.0 °F 93% 30.12 in 0.1 mi Calm Calm - N/A Fog Fog
10:00 PM 33 °F - 33 °F 98% 30.14 in 0 mi Calm Calm - - Fog Fog
10:25 PM 32.0 °F - 32.0 °F 100% 30.12 in 0.1 mi ENE 1.2 mph - N/A Fog Fog
10:55 PM 32.0 °F - 32.0 °F 100% 30.12 in 0.1 mi Calm Calm - N/A Fog Light Freezing Fog
11:25 PM 32.0 °F - 32.0 °F 100% 30.12 in 0.2 mi NW 1.2 mph - N/A Fog Light Freezing Fog
11:55 PM 32.0 °F - 32.0 °F 100% 30.12 in 0.2 mi Calm Calm - N/A Fog Light Freezing Fog